Regional Weather Roundup
Issued by NWS

Home | Current Version | Previous Version | Text Only | Print | Product List | Glossary Off
Versions: 1 2 3 4 5 6 7 8 9 10 11 12 13 14 15 16 17 18 19 20 21 22 23 24 25 26 27 28 29 30 31 32 33 34 35 36 37 38 39 40 41 42 43 44 45 46 47 48 49 50

000
ASUS45 KTFX 202010
RWRMT
MONTANA REGIONAL WEATHER ROUNDUP
NATIONAL WEATHER SERVICE GREAT FALLS MT
200 PM MDT THU JUL 20 2017

NOTE: "FAIR" INDICATES FEW OR NO CLOUDS BELOW 12000 FEET WITH NO
SIGNIFICANT WEATHER AND/OR OBSTRUCTIONS TO VISIBILITY.

MTZ001>007-043-202100-
WEST OF THE DIVIDE

CITY           SKY/WX    TMP DP  RH WIND       PRES   REMARKS
KALISPELL      SUNNY     84  45  25 S7        29.93F
MISSOULA       SUNNY     88  41  19 NW14      29.96F
BUTTE          SUNNY     87  20   8 W7        30.05F
MULLAN PASS    SUNNY     63  38  39 VRB5      30.18F
ANACONDA         N/A     90  25   9 S23       30.02S
DEER LODGE       N/A     86  39  19 NW13G22   30.00S
EUREKA           N/A     84  39  20 MISG      29.93S
HAMILTON         N/A     82  46  28 NW3       29.99F
LIBBY            N/A     82  39  21 S9G17     29.96R
PLAINS           N/A     83  46  27 SW8       29.98
$$

MTZ008-052>055-202100-
SOUTHWEST MONTANA

CITY           SKY/WX    TMP DP  RH WIND       PRES   REMARKS
BOZEMAN        SUNNY     93  27   9 NE5       29.98F
DILLON         SUNNY     84  44  24 SW10      30.03F
W YELLOWSTONE  CLOUDY    79  43  27 SW12G21   30.21F
ENNIS          SUNNY     86  36  16 S15G23    30.09F
THREE FORKS      N/A     92  32  12 NE7       29.96F
$$

MTZ009-010-012-014-046-048-049-054-202100-
EAST SLOPES AND CENTRAL MONTANA

CITY           SKY/WX    TMP DP  RH WIND       PRES   REMARKS
CUT BANK       SUNNY     88  35  15 W9        29.90F
GREAT FALLS    SUNNY     95  23   7 SW17      29.89F
MALMSTROM AFB  SUNNY     91  31  11 W7        29.88F
HELENA         SUNNY     94  34  12 NE8G17    29.90F
CHOTEAU          N/A     91  30  11 SW13G21   29.91F
CONRAD           N/A     90  42  18 S5        29.92F
$$

MTZ011-013-016-021-045-047-050-051-202100-
NORTH CENTRAL MONTANA

CITY           SKY/WX    TMP DP  RH WIND       PRES   REMARKS
HAVRE          SUNNY     95  36  12 E14       29.83F HX  90
LEWISTOWN      SUNNY     91  38  15 NW9G18    29.94F
N BAR RANCH      N/A     91  28  10 VRB5G20   29.98F
CHINOOK          N/A     91  39  16 E14       29.83F
$$

MTZ017>020-022>027-061-062-202100-
NORTHEAST MONTANA

CITY           SKY/WX    TMP DP  RH WIND       PRES   REMARKS
GLASGOW          N/A     95  41  15 E18G28    29.83S HX  91
JORDAN           N/A    101  37  11 W14G25    29.80F HX  95
SIDNEY         MOSUNNY   91  60  35 NE18      29.82F HX  90
WOLF POINT     SUNNY     95  41  15 E22G29    29.83F HX  91
MALTA          SUNNY     93  39  15 E15G22    29.83F
PLENTYWOOD       N/A     82  57  42 E12       29.89F
SCOBEY           N/A     84  52  33 NE7       29.90S
$$

MTZ028>42-056>058-202100-
SOUTHCENTRAL AND SOUTHEAST MONTANA

CITY           SKY/WX    TMP DP  RH WIND       PRES   REMARKS
BAKER          SUNNY    101  55  21 S18G29    29.88F HX  99
BILLINGS       PTSUNNY   90  45  21 SW10      29.94F
LIVINGSTON     SUNNY     94  38  14 SW16G26   29.97F
MILES CITY     SUNNY    102  45  14 SW9G20    29.82F HX  98
BIG TIMBER     SUNNY     91  37  15 W10G18    29.98F
EKALAKA          N/A     98  52  21 SE7       29.91  HX  95
FORSYTH          N/A     97  46  17 W8        29.85S HX  93
LAUREL           N/A     85  47  26 S8        29.95F
$$

REGIONAL REPORTS...DAKOTAS

CITY           SKY/WX    TMP DP  RH WIND       PRES   REMARKS
WILLISTON      MOSUNNY   84  66  54 NE17G23   29.88F
MINOT          SUNNY     93  60  33 VRB6      29.90F HX  93
DICKINSON      SUNNY     96  55  25 S21G32    29.89F HX  94
BEACH            N/A     97  52  21 S22       29.89F HX  94
CROSBY           N/A     81  63  54 SE15      29.90F
TIOGA            N/A     79  66  65 NW7       30.00R THUNDER
WATFORD CITY     N/A     91  59  33 N16       29.88R HX  90
BISMARCK       SUNNY     94  56  27 S15G25    29.94F HX  92
GRAND FORKS    MOSUNNY   83  61  47 SW7       29.97F
FARGO          SUNNY     87  61  41 SE8       29.98F
BUFFALO SD       N/A     97  59  28 S20G36    29.86F HX  96
RAPID CITY     SUNNY     97  57  26 S18G26    29.99F HX  96
$$

REGIONAL REPORTS...WYOMING/IDAHO/WASHINGTON

CITY           SKY/WX    TMP DP  RH WIND       PRES   REMARKS
CODY           SUNNY     86  51  29 NE13      30.06F
YELLOWSTONE LA   N/A     62  57  83 VRB3      30.36S
IDAHO FALLS    CLOUDY    74  62  66 SW8       30.08F
BOISE          SUNNY     87  43  21 NW12G21   30.04F
SPOKANE        MOSUNNY   76  42  29 SW20G30   30.04S
$$

REGIONAL REPORTS...ALBERTA

CITY           SKY/WX    TMP DP  RH WIND       PRES   REMARKS
EDMONTON       SUNNY     73  52  46 E15       29.83F
CALGARY        MOSUNNY   79  43  27 SW10      29.84F
LETHBRIDGE     MOSUNNY   82  46  28 NE6       29.89F
MEDICINE HAT   MOSUNNY   90  39  17 SW8       29.83F
WATERTON GATE    N/A     79  46  31 SE5         N/A
MILK RIVER       N/A     88  41  19 E6          N/A
$$

REGIONAL REPORTS...SASKATCHEWAN

CITY           SKY/WX    TMP DP  RH WIND       PRES   REMARKS
SWIFT CURRENT  SUNNY     88  48  25 SE13G20   29.88F
REGINA         PTSUNNY   88  50  27 SE10G18   29.92F
SASKATOON      MOSUNNY   82  48  30 E6        29.91F
CYPRESS HILLS    N/A     84  34  16 W7          N/A
VAL MARIE        N/A     84  45  24 NE9         N/A
ROCKGLEN         N/A     81  55  41 E6          N/A
$$



USA.gov is the U.S. government's official web portal to all federal, state and local government web resources and services.